Wind_Speed
4 5 5 5 5 5 5 6 7 7 7 7 8 8 8 8 8 9 10 11 12 13 14 14 14 14 14 14 14 14 14 14 13 13 14 14 14 14 14 14 14 14 13 13
6 6 6 6 6 7 7 8 8 8 8 8 8 9 9 9 10 11 11 12 13 14 15 15 15 15 15 15 15 16 15 15 15 15 15 15 15 14 14 14 14 13 13 13
8 9 9 8 9 9 9 9 10 10 10 10 10 10 11 11 12 13 14 15 15 16 16 16 16 17 17 16 17 17 17 17 17 17 16 15 15 15 15 15 14 14 14 14
10 10 11 10 10 11 11 11 11 12 12 12 12 12 13 14 15 15 16 16 17 17 17 17 18 18 18 18 18 18 18 19 19 18 18 17 17 17 16 16 15 15 15 15
11 12 12 11 11 12 12 13 13 13 14 14 14 15 16 16 17 17 18 18 18 18 19 19 19 20 20 20 20 20 21 21 21 21 20 20 19 18 18 17 17 17 16 16
14 14 15 14 13 14 15 14 14 15 16 16 17 17 18 18 19 20 20 20 20 20 20 21 21 21 22 22 23 23 23 23 23 23 23 22 21 21 20 19 19 18 18 18
16 17 17 15 15 16 16 16 17 17 18 18 19 20 20 21 22 22 23 23 23 23 23 23 23 24 24 24 25 25 25 25 25 25 25 24 24 23 22 22 21 21 20 19
18 18 18 17 17 18 18 18 19 19 20 21 22 22 23 23 23 24 24 25 25 25 25 26 26 26 26 27 27 28 28 28 28 27 27 26 25 25 25 24 23 23 22 22
20 20 20 19 19 20 20 20 20 21 22 23 24 25 25 25 25 26 26 27 27 27 28 28 28 29 29 29 29 28 29 29 29 29 29 28 27 27 27 26 26 25 25 24
22 22 22 22 22 22 22 22 23 24 24 25 26 26 27 28 28 29 29 29 30 30 30 31 31 31 31 31 30 30 30 30 30 31 31 30 30 29 29 29 28 28 27 27
25 25 26 26 25 25 25 25 26 26 27 28 28 28 29 29 30 30 31 32 32 32 32 33 33 33 33 33 33 33 33 33 33 33 33 34 33 32 32 32 31 30 30 29
28 28 28 28 28 28 28 28 28 29 29 30 30 30 31 31 32 32 33 33 34 34 34 33 34 34 35 35 35 35 35 35 35 36 36 36 36 35 35 35 34 33 32 32
30 30 30 30 30 30 31 31 32 32 32 33 33 34 34 34 35 35 35 36 36 36 36 36 36 36 36 37 37 37 38 38 38 38 38 38 38 37 36 36 36 35 34 34
34 34 33 33 33 33 34 34 34 35 35 36 37 37 38 38 38 38 38 38 38 38 38 39 39 39 39 39 39 40 40 40 40 40 40 39 39 38 37 37 36 36 36 36
36 37 36 36 36 36 37 37 37 37 38 39 39 40 40 40 40 40 40 40 40 40 41 41 42 41 41 41 42 41 41 41 40 39 38 39 39 38 38 38 37 37 37 37
38 38 38 38 38 39 39 39 40 40 41 41 42 42 42 42 42 42 42 42 42 42 43 43 43 43 43 43 43 42 41 40 39 38 38 38 39 39 38 37 38 38 37 38
40 40 40 40 41 41 41 42 42 43 43 43 43 43 43 43 43 43 44 44 44 44 44 45 44 44 44 43 43 42 40 40 40 39 39 38 38 38 38 38 37 37 37 37
42 42 42 42 42 43 43 44 44 45 45 45 45 45 45 44 45 45 45 46 46 46 45 46 46 45 44 44 43 42 41 40 40 40 39 39 39 38 37 37 37 37 37 37
43 43 43 44 44 44 45 45 46 46 46 46 46 45 46 46 46 46 46 46 46 47 46 46 46 45 45 44 44 43 42 41 41 40 40 39 38 38 37 37 37 37 37 38
43 43 44 45 45 45 45 46 46 46 47 47 46 46 47 47 47 47 47 47 47 48 47 47 46 46 45 45 45 44 43 42 41 40 40 40 39 39 39 38 38 38 38 38
42 43 43 44 45 46 46 47 47 47 47 47 47 47 47 47 48 48 48 48 48 48 47 46 46 46 46 45 45 44 44 43 42 42 41 41 40 39 39 40 39 39 39 39
43 43 44 45 45 46 46 47 46 46 47 47 47 47 48 48 48 49 49 48 47 47 47 46 46 46 46 45 44 43 43 43 43 43 42 41 41 40 40 40 40 40 40 40
43 43 44 44 44 45 45 45 45 46 46 47 47 47 48 48 49 48 48 48 48 47 47 46 46 45 45 45 44 44 44 44 43 43 43 42 41 41 41 41 41 40 39 39
43 43 43 43 43 43 43 44 45 46 46 46 47 47 47 47 48 48 48 47 47 47 46 46 45 45 44 44 44 43 43 43 43 43 43 42 42 42 41 40 40 40 39 38
43 43 43 43 44 44 44 45 45 45 45 45 45 45 46 47 47 46 47 47 46 46 46 45 44 44 44 44 43 43 42 42 42 42 42 42 41 41 40 39 39 39 39 38
44 44 44 44 44 44 44 44 44 44 44 44 44 44 45 45 46 46 46 46 45 45 44 44 43 43 43 43 42 42 42 41 41 41 41 40 40 40 39 38 38 38 39 39
45 45 44 44 44 43 43 43 43 43 43 44 44 44 44 44 44 44 44 43 43 43 43 42 42 42 42 42 41 40 40 40 40 39 39 39 39 40 39 38 37 36 36 36
Wind_Direction
217 220 224 230 238 239 230 226 234 248 256 260 268 275 278 279 280 281 284 284 282 283 286 287 287 289 290 290 290 290 290 292 295 297 298 301 304 306 308 310 312 315 318 319
241 247 248 246 246 246 246 243 245 254 261 266 269 273 275 278 280 283 285 286 285 285 286 286 287 289 290 290 290 290 290 290 290 293 294 297 300 302 304 306 308 310 313 315
252 257 257 254 250 252 253 253 254 257 264 269 273 276 278 281 283 286 288 288 288 288 287 286 285 287 289 290 290 289 289 289 288 289 290 292 295 298 300 302 303 305 308 310
254 259 262 261 256 256 257 257 257 260 264 269 274 277 280 282 284 285 286 286 286 285 284 284 284 285 286 286 288 288 287 287 288 287 288 288 290 292 294 296 298 300 301 303
257 259 262 260 258 260 262 262 264 268 270 272 275 277 280 282 283 284 284 284 284 284 283 284 284 285 285 285 286 286 287 287 287 287 286 287 286 286 288 291 293 294 296 297
260 262 263 262 260 263 266 267 269 272 274 275 276 277 280 282 283 284 283 283 283 283 284 283 283 284 285 285 284 284 285 286 286 286 285 285 284 283 284 286 288 290 292 293
260 262 264 265 263 263 265 269 269 271 274 274 276 279 281 283 284 284 283 283 283 283 284 284 283 283 283 284 284 284 284 283 283 284 283 283 283 281 281 282 283 285 287 288
260 262 264 265 264 265 268 270 272 273 274 275 276 278 281 283 283 283 284 284 284 284 284 284 284 283 283 283 283 283 282 281 281 281 280 280 281 279 277 278 279 280 281 282
261 262 264 265 267 269 271 273 274 275 277 278 279 280 281 282 283 283 283 283 284 284 284 284 284 284 283 283 283 282 281 280 280 279 278 277 278 277 276 276 276 277 278 278
261 263 264 266 267 270 272 274 276 277 278 280 281 282 282 283 283 283 282 283 284 284 284 285 285 285 284 284 283 281 279 279 278 278 277 275 274 274 274 274 274 274 275 275
263 264 265 267 269 271 272 274 276 278 279 279 280 282 283 283 283 283 283 284 284 284 284 284 284 283 284 283 283 281 279 278 277 277 276 275 274 274 273 272 272 272 272 273
264 265 267 269 270 272 274 276 278 279 279 280 281 282 283 284 283 283 284 284 285 284 284 283 283 283 283 283 282 281 279 278 277 277 275 274 273 273 273 271 271 271 271 270
265 267 269 271 272 274 276 277 279 280 281 282 283 283 284 284 283 283 283 284 284 284 283 283 284 283 282 282 282 282 281 280 278 277 276 275 273 272 271 270 270 270 270 269
266 268 271 273 274 275 276 277 278 279 281 282 283 283 283 284 283 283 283 283 283 283 284 284 284 283 282 281 282 282 282 280 278 277 276 275 273 271 270 270 268 267 267 266
267 269 271 273 274 275 276 277 278 279 280 282 283 284 284 284 284 284 283 283 283 284 284 285 284 283 282 281 282 283 282 280 279 277 275 274 273 271 270 270 268 266 264 263
269 271 272 273 274 275 276 277 278 280 281 282 283 284 284 284 284 284 283 283 284 284 285 285 285 284 282 281 281 281 281 279 277 275 273 273 273 271 270 269 268 266 263 262
271 272 273 274 274 275 277 278 279 280 281 282 282 283 283 283 283 283 284 284 284 285 285 285 284 283 282 281 280 279 278 277 275 274 272 273 273 271 269 269 268 265 264 263
272 273 274 275 275 276 277 278 279 280 280 281 282 282 282 282 282 283 284 284 284 285 285 285 284 282 281 280 278 277 276 276 275 273 272 272 272 270 268 268 267 265 264 263
274 274 275 275 277 277 277 278 278 279 280 281 281 281 281 282 283 283 284 284 284 285 285 285 284 282 280 279 278 277 276 276 275 272 271 270 269 268 267 267 267 265 264 263
275 275 275 276 278 278 279 278 278 279 280 281 282 282 282 283 284 284 284 284 285 285 285 285 284 282 279 278 278 277 275 274 272 271 270 269 268 267 266 267 266 265 265 264
276 276 277 277 278 278 279 279 279 279 280 281 282 282 283 283 283 284 284 284 284 284 284 284 283 282 280 279 277 276 273 272 271 270 269 268 267 266 266 266 266 266 266 265
277 278 278 279 279 279 279 280 281 281 281 282 282 283 283 283 283 284 284 284 284 283 283 282 282 282 280 278 277 275 273 271 270 269 268 267 267 266 266 266 266 266 266 265
279 280 280 280 279 279 279 280 281 282 283 283 284 284 284 284 284 285 284 284 284 283 282 282 282 281 280 278 277 275 273 270 269 268 267 266 266 266 266 266 266 266 265 262
279 280 280 280 279 279 279 280 281 282 283 284 284 284 284 284 284 285 285 285 284 284 283 282 281 280 279 278 276 275 273 272 269 268 267 266 265 264 264 264 264 263 261 259
280 280 280 280 280 280 280 280 281 282 283 284 285 285 285 285 285 285 284 284 284 283 282 280 279 279 279 278 276 274 273 271 270 268 267 265 264 263 262 262 261 261 259 258
279 280 280 280 280 281 281 282 282 282 282 282 283 285 285 285 285 285 284 283 283 283 281 280 279 278 278 277 275 273 271 270 269 267 266 265 263 262 261 261 260 259 258 258
278 278 279 279 279 280 281 281 281 281 282 282 282 284 286 286 286 286 285 284 283 282 281 279 278 277 276 276 275 272 270 268 267 266 264 263 262 261 259 258 258 257 256 255
Height
5822 5823 5823 5824 5824 5825 5825 5826 5827 5827 5827 5827 5827 5827 5827 5826 5826 5826 5825 5824 5824 5823 5822 5821 5820 5819 5819 5818 5817 5816 5815 5814 5813 5812 5810 5809 5807 5805 5803 5801 5800 5798 5796 5794
5821 5821 5821 5821 5822 5822 5823 5823 5824 5824 5824 5824 5824 5824 5824 5823 5823 5823 5822 5821 5820 5819 5818 5817 5816 5815 5814 5814 5813 5812 5811 5810 5809 5808 5807 5805 5804 5802 5800 5799 5797 5795 5793 5791
5818 5818 5819 5819 5819 5819 5820 5820 5821 5821 5822 5821 5821 5820 5820 5820 5819 5818 5817 5816 5815 5814 5813 5812 5812 5811 5810 5809 5808 5807 5806 5806 5805 5804 5803 5801 5800 5799 5797 5796 5794 5792 5791 5789
5815 5816 5815 5818 5816 5816 5816 5816 5817 5817 5817 5817 5817 5816 5815 5815 5814 5814 5813 5812 5811 5810 5809 5808 5807 5806 5805 5804 5803 5802 5801 5801 5800 5799 5798 5797 5796 5795 5793 5792 5790 5789 5787 5786
5811 5811 5811 5812 5811 5811 5812 5812 5812 5812 5812 5812 5812 5811 5811 5810 5809 5808 5807 5806 5805 5804 5803 5802 5802 5801 5800 5799 5798 5797 5796 5795 5794 5793 5793 5792 5791 5790 5789 5787 5786 5785 5784 5782
5806 5806 5807 5808 5807 5807 5808 5807 5807 5807 5807 5806 5806 5806 5806 5804 5803 5802 5801 5800 5799 5798 5797 5797 5796 5795 5794 5793 5792 5791 5790 5789 5788 5787 5786 5786 5785 5784 5783 5782 5781 5780 5779 5778
5801 5801 5801 5802 5802 5802 5803 5803 5802 5801 5801 5801 5800 5800 5799 5798 5797 5796 5795 5794 5793 5792 5791 5790 5789 5788 5787 5786 5785 5784 5782 5782 5781 5780 5780 5779 5778 5778 5777 5776 5776 5775 5774 5773
5795 5796 5798 5796 5796 5797 5797 5796 5795 5795 5795 5794 5794 5793 5792 5791 5790 5789 5787 5786 5785 5784 5783 5782 5781 5780 5779 5778 5777 5775 5774 5773 5773 5772 5772 5771 5771 5770 5770 5769 5769 5768 5767 5767
5790 5791 5790 5790 5790 5790 5789 5789 5789 5788 5788 5787 5787 5786 5785 5783 5782 5781 5779 5778 5777 5776 5775 5774 5772 5771 5770 5769 5767 5766 5765 5765 5764 5763 5763 5763 5762 5762 5762 5761 5761 5761 5760 5760
5782 5782 5782 5782 5782 5782 5782 5782 5782 5781 5781 5780 5779 5778 5776 5775 5774 5772 5771 5769 5768 5767 5765 5764 5762 5761 5760 5759 5758 5757 5756 5755 5754 5754 5753 5753 5752 5752 5752 5752 5752 5752 5752 5752
5773 5774 5774 5774 5774 5774 5775 5774 5774 5773 5772 5771 5770 5769 5768 5766 5765 5763 5762 5760 5758 5757 5755 5754 5752 5751 5750 5749 5747 5746 5745 5745 5744 5743 5743 5742 5742 5742 5742 5742 5742 5742 5742 5742
5764 5765 5765 5766 5765 5765 5765 5765 5764 5764 5763 5761 5760 5759 5758 5756 5755 5753 5752 5750 5748 5746 5745 5743 5741 5740 5738 5737 5736 5735 5734 5733 5732 5731 5731 5730 5730 5730 5730 5730 5731 5731 5731 5732
5755 5755 5756 5756 5756 5756 5755 5755 5754 5753 5752 5751 5750 5748 5747 5746 5744 5742 5741 5739 5737 5735 5733 5732 5730 5728 5726 5725 5723 5722 5721 5720 5719 5718 5717 5717 5717 5717 5717 5718 5718 5719 5719 5719
5744 5745 5745 5746 5746 5745 5745 5744 5743 5742 5741 5740 5739 5737 5735 5734 5732 5731 5729 5727 5725 5723 5721 5719 5718 5716 5714 5712 5711 5709 5707 5706 5705 5704 5703 5703 5702 5703 5703 5704 5705 5706 5706 5707
5733 5734 5734 5734 5734 5734 5733 5732 5732 5731 5729 5728 5726 5724 5723 5721 5720 5718 5716 5714 5713 5711 5709 5706 5704 5702 5700 5698 5697 5695 5693 5692 5690 5689 5689 5689 5689 5689 5689 5689 5690 5691 5693 5694
5722 5722 5722 5722 5722 5721 5720 5720 5719 5718 5716 5715 5713 5711 5710 5708 5706 5705 5703 5701 5699 5697 5695 5693 5690 5688 5686 5684 5682 5681 5679 5678 5677 5676 5676 5676 5676 5676 5676 5676 5676 5677 5679 5680
5710 5710 5709 5709 5708 5708 5707 5706 5705 5704 5703 5701 5699 5698 5696 5694 5692 5691 5689 5687 5685 5683 5680 5678 5675 5673 5671 5669 5667 5666 5666 5664 5663 5663 5663 5663 5662 5662 5662 5662 5663 5664 5665 5666
5696 5696 5696 5695 5695 5694 5693 5692 5691 5690 5688 5687 5685 5683 5681 5680 5678 5676 5674 5672 5670 5668 5665 5662 5660 5657 5656 5654 5653 5652 5651 5651 5650 5649 5649 5649 5649 5649 5648 5649 5650 5650 5651 5652
5682 5682 5682 5681 5680 5680 5679 5677 5676 5675 5673 5671 5670 5668 5667 5665 5663 5661 5659 5657 5654 5652 5650 5647 5644 5642 5641 5639 5638 5637 5637 5637 5636 5636 5636 5636 5636 5636 5636 5636 5637 5637 5638 5639
5668 5667 5667 5666 5665 5664 5663 5662 5661 5659 5658 5656 5655 5653 5652 5650 5647 5645 5643 5641 5639 5636 5634 5631 5629 5627 5625 5624 5623 5622 5622 5622 5621 5622 5622 5622 5622 5622 5622 5623 5623 5624 5625 5625
5653 5653 5652 5651 5650 5649 5648 5646 5645 5644 5642 5640 5639 5637 5636 5634 5631 5629 5627 5626 5624 5620 5618 5616 5614 5612 5610 5608 5607 5607 5607 5606 5607 5607 5607 5607 5608 5608 5609 5609 5609 5610 5611 5611
5639 5638 5637 5636 5635 5634 5632 5631 5629 5628 5626 5625 5623 5621 5619 5618 5615 5613 5611 5609 5607 5604 5602 5600 5598 5596 5594 5592 5592 5591 5591 5591 5591 5592 5592 5592 5593 5594 5594 5595 5595 5596 5596 5597
5624 5623 5622 5621 5620 5619 5617 5616 5614 5612 5611 5609 5607 5605 5603 5601 5599 5597 5595 5593 5590 5588 5585 5584 5582 5580 5578 5577 5576 5576 5575 5576 5576 5577 5577 5578 5578 5579 5580 5580 5581 5581 5582 5583
5610 5609 5608 5606 5605 5604 5603 5601 5599 5597 5596 5594 5592 5589 5587 5585 5583 5580 5578 5576 5574 5571 5569 5568 5566 5564 5562 5561 5561 5560 5560 5560 5561 5561 5562 5562 5563 5564 5565 5566 5566 5567 5567 5569
5595 5594 5593 5592 5591 5589 5588 5586 5584 5583 5581 5579 5577 5574 5571 5569 5567 5565 5562 5560 5558 5555 5554 5552 5551 5549 5547 5546 5545 5545 5545 5545 5545 5546 5546 5547 5548 5549 5550 5551 5552 5553 5554 5555
5580 5580 5578 5577 5576 5574 5573 5571 5570 5568 5566 5564 5562 5560 5557 5554 5552 5549 5547 5544 5542 5540 5538 5536 5535 5533 5532 5531 5530 5530 5530 5530 5530 5530 5531 5532 5533 5535 5536 5537 5538 5539 5541 5542
5566 5565 5564 5563 5561 5559 5558 5556 5555 5553 5551 5550 5548 5546 5543 5540 5537 5535 5532 5529 5527 5525 5523 5521 5520 5518 5517 5516 5516 5515 5515 5515 5515 5516 5517 5518 5519 5521 5522 5524 5525 5526 5527 5529